|
NORAD ID: 3692 Int'l Code: 1969-013B
Perigee: 35,996.2 km
Apogee: 37,112.2 km
Inclination: 9.2 °
Period: 1,475.1 minutes
Semi major axis: 42925 km
Launch date: February 9, 1969
Source: United States (US)
Note: This is a ROCKET BODY
Two Line Element Set (TLE):
1 03692U 69013B 13144.50087018 -.00000048 00000-0 10000-3 0 6962
2 03692 009.2496 315.9723 0130001 081.2593 280.1702 00.97618999 65701
Source:
NASA's NSSDC Master Catalog entry for TITAN 3C TRANSTAGE R/B
|